M I D A S
Marine Information and Data Acquisition System
Tripno 1855 of the Zeeleeuw from 2010-04-06 09:10:00 to 2010-04-06 20:05:00
Back to CruiseResearch ActivitiesStationsMapUnderway DataData graphs

EquipmentUnitsComments
TimeDGPSUTC
LatitudeDGPSDM.mWGS84
LongitudeDGPSDM.mWGS84
SpeedMeteo Stationm/sRelative wind speed
DirectionMeteo StationdegRelative wind direction
TemperatureMeteo Stationdeg CelciusAir temperature
PressureMeteo StationPaAtmospheric pressure
HumidityMeteo Station%Relative humidity
Missing or incorrect values are displayed as -999
Metereological data collected by the RV Zeeleeuw from 2010-04-06 09:10:00 to 2010-04-06 20:05:00
Time Latitude Longitude Speed Direction Temperature Pressure Humidity
2010-04-06 09:12 51°32.406 2°55.514 -999 -999 -999 -999 -999
2010-04-06 09:14 51°32.362 2°55.523 -999 -999 -999 -999 -999
2010-04-06 09:16 51°32.348 2°55.439 -999 -999 -999 -999 -999
2010-04-06 09:18 51°32.355 2°55.377 -999 -999 -999 -999 -999
2010-04-06 09:20 51°32.367 2°55.334 -999 -999 -999 -999 -999
2010-04-06 09:22 51°32.325 2°55.328 -999 -999 -999 -999 -999
2010-04-06 09:24 51°32.421 2°55.382 -999 -999 -999 -999 -999
2010-04-06 09:26 51°32.726 2°55.006 -999 -999 -999 -999 -999
2010-04-06 09:28 51°33.148 2°54.934 -999 -999 -999 -999 -999
2010-04-06 09:30 51°33.277 2°55.43 -999 -999 -999 -999 -999
2010-04-06 09:32 51°33.214 2°55.667 -999 -999 -999 -999 -999
2010-04-06 09:34 51°33.201 2°55.776 -999 -999 -999 -999 -999
2010-04-06 09:36 51°33.207 2°55.824 -999 -999 -999 -999 -999
2010-04-06 09:38 51°33.217 2°55.837 -999 -999 -999 -999 -999
2010-04-06 09:40 51°33.232 2°55.83 -999 -999 -999 -999 -999
2010-04-06 09:42 51°33.25 2°55.814 -999 -999 -999 -999 -999
2010-04-06 09:44 51°33.269 2°55.791 -999 -999 -999 -999 -999
2010-04-06 09:46 51°33.288 2°55.767 -999 -999 -999 -999 -999
2010-04-06 09:48 51°33.307 2°55.746 -999 -999 -999 -999 -999
2010-04-06 09:50 51°33.325 2°55.73 -999 -999 -999 -999 -999
2010-04-06 09:52 51°33.341 2°55.716 -999 -999 -999 -999 -999
2010-04-06 09:54 51°33.358 2°55.699 -999 -999 -999 -999 -999
2010-04-06 09:56 51°33.373 2°55.682 -999 -999 -999 -999 -999
2010-04-06 09:58 51°33.389 2°55.663 -999 -999 -999 -999 -999
2010-04-06 10:00 51°33.404 2°55.641 -999 -999 -999 -999 -999
2010-04-06 10:02 51°33.419 2°55.617 -999 -999 -999 -999 -999
2010-04-06 10:04 51°33.435 2°55.592 -999 -999 -999 -999 -999
2010-04-06 10:06 51°33.462 2°55.603 -999 -999 -999 -999 -999
2010-04-06 10:08 51°33.552 2°55.479 -999 -999 -999 -999 -999
2010-04-06 10:10 51°33.58 2°55.278 -999 -999 -999 -999 -999
2010-04-06 10:12 51°33.645 2°55.148 -999 -999 -999 -999 -999
2010-04-06 10:14 51°33.662 2°55.302 -999 -999 -999 -999 -999
2010-04-06 10:16 51°33.562 2°55.517 -999 -999 -999 -999 -999
2010-04-06 10:18 51°33.443 2°55.731 -999 -999 -999 -999 -999
2010-04-06 10:20 51°33.347 2°55.892 -999 -999 -999 -999 -999
2010-04-06 10:22 51°33.295 2°55.977 -999 -999 -999 -999 -999
2010-04-06 10:24 51°33.257 2°56.036 -999 -999 -999 -999 -999
2010-04-06 10:26 51°33.223 2°56.078 -999 -999 -999 -999 -999
2010-04-06 10:28 51°33.188 2°56.112 -999 -999 -999 -999 -999
2010-04-06 10:30 51°33.152 2°56.147 -999 -999 -999 -999 -999
2010-04-06 10:32 51°33.119 2°56.186 -999 -999 -999 -999 -999
2010-04-06 10:34 51°33.084 2°56.226 -999 -999 -999 -999 -999
2010-04-06 10:36 51°33.049 2°56.272 -999 -999 -999 -999 -999
2010-04-06 10:38 51°33.018 2°56.329 -999 -999 -999 -999 -999
2010-04-06 10:40 51°32.991 2°56.395 -999 -999 -999 -999 -999
2010-04-06 10:42 51°32.961 2°56.46 -999 -999 -999 -999 -999
2010-04-06 10:44 51°32.967 2°56.521 -999 -999 -999 -999 -999
2010-04-06 10:46 51°33.005 2°56.535 -999 -999 -999 -999 -999
2010-04-06 10:48 51°33.031 2°56.533 -999 -999 -999 -999 -999
2010-04-06 10:50 51°33.045 2°56.527 -999 -999 -999 -999 -999
2010-04-06 10:52 51°33.052 2°56.516 -999 -999 -999 -999 -999
2010-04-06 10:54 51°33.057 2°56.5 -999 -999 -999 -999 -999
2010-04-06 10:56 51°33.061 2°56.481 -999 -999 -999 -999 -999
2010-04-06 10:58 51°33.063 2°56.457 -999 -999 -999 -999 -999
2010-04-06 11:00 51°33.065 2°56.429 -999 -999 -999 -999 -999
2010-04-06 11:02 51°33.066 2°56.396 -999 -999 -999 -999 -999
2010-04-06 11:04 51°33.065 2°56.359 -999 -999 -999 -999 -999
2010-04-06 11:06 51°33.063 2°56.322 -999 -999 -999 -999 -999
2010-04-06 11:08 51°33.06 2°56.282 -999 -999 -999 -999 -999
2010-04-06 11:10 51°33.057 2°56.24 -999 -999 -999 -999 -999
2010-04-06 11:12 51°33.052 2°56.199 -999 -999 -999 -999 -999
2010-04-06 11:14 51°33.048 2°56.156 -999 -999 -999 -999 -999
2010-04-06 11:16 51°33.041 2°56.112 -999 -999 -999 -999 -999
2010-04-06 11:18 51°33.033 2°56.067 -999 -999 -999 -999 -999
2010-04-06 11:20 51°33.025 2°56.021 -999 -999 -999 -999 -999
2010-04-06 11:22 51°33.017 2°55.974 -999 -999 -999 -999 -999
2010-04-06 11:24 51°33.01 2°55.927 -999 -999 -999 -999 -999
2010-04-06 11:26 51°33.03 2°56.013 -999 -999 -999 -999 -999
2010-04-06 11:28 51°33.146 2°56.265 -999 -999 -999 -999 -999
2010-04-06 11:30 51°33.132 2°56.417 -999 -999 -999 -999 -999
2010-04-06 11:32 51°33.055 2°56.267 -999 -999 -999 -999 -999
2010-04-06 11:34 51°33.076 2°56.055 -999 -999 -999 -999 -999
2010-04-06 11:36 51°33.149 2°56.045 -999 -999 -999 -999 -999
2010-04-06 11:38 51°33.26 2°56.141 -999 -999 -999 -999 -999
2010-04-06 11:40 51°33.352 2°55.966 -999 -999 -999 -999 -999
2010-04-06 11:42 51°33.375 2°55.418 -999 -999 -999 -999 -999
2010-04-06 11:44 51°33.119 2°54.996 -999 -999 -999 -999 -999
2010-04-06 11:46 51°32.878 2°55.224 -999 -999 -999 -999 -999
2010-04-06 11:48 51°32.768 2°55.403 -999 -999 -999 -999 -999
2010-04-06 11:50 51°32.749 2°55.391 -999 -999 -999 -999 -999
2010-04-06 11:52 51°32.739 2°55.353 -999 -999 -999 -999 -999
2010-04-06 11:54 51°32.731 2°55.322 -999 -999 -999 -999 -999
2010-04-06 11:56 51°32.717 2°55.289 -999 -999 -999 -999 -999
2010-04-06 11:58 51°32.703 2°55.255 -999 -999 -999 -999 -999
2010-04-06 13:00 51°31.949 2°53.329 -999 -999 -999 -999 -999
2010-04-06 13:02 51°31.653 2°52.688 -999 -999 -999 -999 -999
2010-04-06 13:04 51°31.327 2°52.087 -999 -999 -999 -999 -999
2010-04-06 13:06 51°30.987 2°51.501 -999 -999 -999 -999 -999
2010-04-06 13:08 51°30.647 2°50.915 -999 -999 -999 -999 -999
2010-04-06 13:10 51°30.308 2°50.335 -999 -999 -999 -999 -999
2010-04-06 13:12 51°29.956 2°49.78 -999 -999 -999 -999 -999
2010-04-06 13:14 51°29.594 2°49.246 -999 -999 -999 -999 -999
2010-04-06 13:16 51°29.234 2°48.706 -999 -999 -999 -999 -999
2010-04-06 13:18 51°28.877 2°48.16 -999 -999 -999 -999 -999
2010-04-06 13:20 51°28.521 2°47.609 -999 -999 -999 -999 -999
2010-04-06 13:22 51°28.171 2°47.061 -999 -999 -999 -999 -999
2010-04-06 13:24 51°27.825 2°46.512 -999 -999 -999 -999 -999
2010-04-06 13:26 51°27.471 2°45.979 -999 -999 -999 -999 -999
2010-04-06 13:28 51°27.035 2°45.658 -999 -999 -999 -999 -999
2010-04-06 13:30 51°26.61 2°45.285 -999 -999 -999 -999 -999
2010-04-06 13:32 51°26.187 2°44.901 -999 -999 -999 -999 -999
2010-04-06 13:34 51°25.763 2°44.519 -999 -999 -999 -999 -999
2010-04-06 13:36 51°25.312 2°44.232 -999 -999 -999 -999 -999
2010-04-06 13:38 51°25.029 2°44.086 -999 -999 -999 -999 -999
2010-04-06 13:40 51°24.885 2°44.093 -999 -999 -999 -999 -999
2010-04-06 13:42 51°24.768 2°44.106 -999 -999 -999 -999 -999
2010-04-06 13:44 51°24.663 2°44.095 -999 -999 -999 -999 -999
2010-04-06 13:46 51°24.576 2°44.079 -999 -999 -999 -999 -999
2010-04-06 13:48 51°24.477 2°44.07 -999 -999 -999 -999 -999
2010-04-06 13:50 51°24.353 2°44.068 -999 -999 -999 -999 -999
2010-04-06 13:52 51°24.395 2°43.804 -999 -999 -999 -999 -999
2010-04-06 13:54 51°24.569 2°43.76 -999 -999 -999 -999 -999
2010-04-06 13:56 51°24.662 2°43.73 -999 -999 -999 -999 -999
2010-04-06 13:58 51°24.704 2°43.656 -999 -999 -999 -999 -999
2010-04-06 14:00 51°24.759 2°43.635 -999 -999 -999 -999 -999
2010-04-06 14:02 51°24.735 2°43.719 -999 -999 -999 -999 -999
2010-04-06 14:04 51°24.683 2°43.734 -999 -999 -999 -999 -999
2010-04-06 14:06 51°24.661 2°43.715 -999 -999 -999 -999 -999
2010-04-06 14:08 51°24.649 2°43.689 -999 -999 -999 -999 -999
2010-04-06 14:10 51°24.648 2°43.652 -999 -999 -999 -999 -999
2010-04-06 14:12 51°24.648 2°43.62 -999 -999 -999 -999 -999
2010-04-06 14:14 51°24.659 2°43.671 -999 -999 -999 -999 -999
2010-04-06 14:16 51°24.66 2°43.667 -999 -999 -999 -999 -999
2010-04-06 14:18 51°24.665 2°43.679 -999 -999 -999 -999 -999
2010-04-06 14:20 51°24.67 2°43.69 -999 -999 -999 -999 -999
2010-04-06 14:22 51°24.669 2°43.686 -999 -999 -999 -999 -999
2010-04-06 14:24 51°24.664 2°43.666 -999 -999 -999 -999 -999
2010-04-06 14:26 51°24.669 2°43.648 -999 -999 -999 -999 -999
2010-04-06 14:28 51°24.674 2°43.688 -999 -999 -999 -999 -999
2010-04-06 14:30 51°24.676 2°43.688 -999 -999 -999 -999 -999
2010-04-06 14:32 51°24.679 2°43.715 -999 -999 -999 -999 -999
2010-04-06 14:34 51°24.677 2°43.716 -999 -999 -999 -999 -999
2010-04-06 14:36 51°24.671 2°43.702 -999 -999 -999 -999 -999
2010-04-06 14:38 51°24.666 2°43.677 -999 -999 -999 -999 -999
2010-04-06 14:40 51°24.666 2°43.674 -999 -999 -999 -999 -999
2010-04-06 14:42 51°24.659 2°43.643 -999 -999 -999 -999 -999
2010-04-06 14:44 51°24.684 2°43.595 -999 -999 -999 -999 -999
2010-04-06 14:46 51°24.727 2°43.509 -999 -999 -999 -999 -999
2010-04-06 14:48 51°24.734 2°43.389 -999 -999 -999 -999 -999
2010-04-06 14:50 51°24.715 2°43.275 -999 -999 -999 -999 -999
2010-04-06 14:52 51°24.764 2°43.171 -999 -999 -999 -999 -999
2010-04-06 14:54 51°24.788 2°43.327 -999 -999 -999 -999 -999
2010-04-06 14:56 51°24.747 2°43.582 -999 -999 -999 -999 -999
2010-04-06 14:58 51°24.753 2°43.703 -999 -999 -999 -999 -999
2010-04-06 15:00 51°24.77 2°43.764 -999 -999 -999 -999 -999
2010-04-06 15:02 51°24.78 2°43.797 -999 -999 -999 -999 -999
2010-04-06 15:04 51°24.783 2°43.812 -999 -999 -999 -999 -999
2010-04-06 15:06 51°24.784 2°43.818 -999 -999 -999 -999 -999
2010-04-06 15:08 51°24.728 2°43.869 -999 -999 -999 -999 -999
2010-04-06 15:10 51°24.666 2°43.831 -999 -999 -999 -999 -999
2010-04-06 15:12 51°24.633 2°43.799 -999 -999 -999 -999 -999
2010-04-06 15:14 51°24.597 2°43.757 -999 -999 -999 -999 -999
2010-04-06 15:16 51°24.591 2°43.607 -999 -999 -999 -999 -999
2010-04-06 15:18 51°24.578 2°43.446 -999 -999 -999 -999 -999
2010-04-06 15:20 51°24.552 2°43.333 -999 -999 -999 -999 -999
2010-04-06 15:22 51°24.603 2°43.233 -999 -999 -999 -999 -999
2010-04-06 15:24 51°24.7 2°43.359 -999 -999 -999 -999 -999
2010-04-06 15:26 51°24.771 2°43.476 -999 -999 -999 -999 -999
2010-04-06 15:28 51°24.8 2°43.557 -999 -999 -999 -999 -999
2010-04-06 15:30 51°24.813 2°43.618 -999 -999 -999 -999 -999
2010-04-06 15:32 51°24.811 2°43.69 -999 -999 -999 -999 -999
2010-04-06 15:34 51°24.795 2°43.748 -999 -999 -999 -999 -999
2010-04-06 15:36 51°24.785 2°43.779 -999 -999 -999 -999 -999
2010-04-06 15:38 51°24.785 2°43.8 -999 -999 -999 -999 -999
2010-04-06 15:40 51°24.789 2°43.813 -999 -999 -999 -999 -999
2010-04-06 15:42 51°24.798 2°43.821 -999 -999 -999 -999 -999
2010-04-06 15:44 51°24.812 2°43.827 -999 -999 -999 -999 -999
2010-04-06 15:46 51°24.824 2°43.851 -999 -999 -999 -999 -999
2010-04-06 15:48 51°24.783 2°43.932 -999 -999 -999 -999 -999
2010-04-06 15:50 51°24.671 2°44.072 -999 -999 -999 -999 -999
2010-04-06 15:52 51°24.594 2°44.095 -999 -999 -999 -999 -999
2010-04-06 15:54 51°24.616 2°43.936 -999 -999 -999 -999 -999
2010-04-06 15:56 51°24.696 2°43.787 -999 -999 -999 -999 -999
2010-04-06 15:58 51°24.775 2°43.708 -999 -999 -999 -999 -999
2010-04-06 16:00 51°24.853 2°43.67 -999 -999 -999 -999 -999
2010-04-06 16:02 51°24.933 2°43.731 -999 -999 -999 -999 -999
2010-04-06 16:04 51°24.852 2°43.836 -999 -999 -999 -999 -999
2010-04-06 16:06 51°24.712 2°43.8 -999 -999 -999 -999 -999
2010-04-06 16:08 51°24.699 2°43.8 -999 -999 -999 -999 -999
2010-04-06 16:10 51°24.694 2°43.769 -999 -999 -999 -999 -999
2010-04-06 16:12 51°24.699 2°43.757 -999 -999 -999 -999 -999
2010-04-06 16:14 51°24.721 2°43.773 -999 -999 -999 -999 -999
2010-04-06 16:16 51°24.732 2°43.746 -999 -999 -999 -999 -999
2010-04-06 16:18 51°24.726 2°43.697 -999 -999 -999 -999 -999
2010-04-06 16:20 51°24.762 2°43.734 -999 -999 -999 -999 -999
2010-04-06 16:22 51°24.755 2°43.726 -999 -999 -999 -999 -999
2010-04-06 16:24 51°24.729 2°43.748 -999 -999 -999 -999 -999
2010-04-06 16:26 51°24.695 2°43.76 -999 -999 -999 -999 -999
2010-04-06 16:28 51°24.673 2°43.748 -999 -999 -999 -999 -999
2010-04-06 16:30 51°24.681 2°43.759 -999 -999 -999 -999 -999
2010-04-06 16:32 51°24.711 2°43.783 -999 -999 -999 -999 -999
2010-04-06 16:34 51°24.711 2°43.772 -999 -999 -999 -999 -999
2010-04-06 16:36 51°24.615 2°44.075 -999 -999 -999 -999 -999
2010-04-06 16:38 51°24.391 2°44.708 -999 -999 -999 -999 -999
2010-04-06 16:40 51°24.105 2°45.269 -999 -999 -999 -999 -999
2010-04-06 16:42 51°23.804 2°45.812 -999 -999 -999 -999 -999
2010-04-06 16:44 51°23.506 2°46.358 -999 -999 -999 -999 -999
2010-04-06 16:46 51°23.113 2°46.64 -999 -999 -999 -999 -999
2010-04-06 16:48 51°22.692 2°46.71 -999 -999 -999 -999 -999
2010-04-06 16:50 51°22.272 2°46.773 -999 -999 -999 -999 -999
2010-04-06 16:52 51°21.863 2°46.967 -999 -999 -999 -999 -999
2010-04-06 16:54 51°21.478 2°47.287 -999 -999 -999 -999 -999
2010-04-06 16:56 51°21.129 2°47.72 -999 -999 -999 -999 -999
2010-04-06 16:58 51°20.795 2°48.171 -999 -999 -999 -999 -999
2010-04-06 17:00 51°20.455 2°48.619 -999 -999 -999 -999 -999
2010-04-06 17:02 51°20.118 2°49.059 -999 -999 -999 -999 -999
2010-04-06 17:04 51°19.776 2°49.501 -999 -999 -999 -999 -999
2010-04-06 17:06 51°19.429 2°49.943 -999 -999 -999 -999 -999
2010-04-06 17:08 51°19.08 2°50.386 -999 -999 -999 -999 -999
2010-04-06 17:10 51°18.739 2°50.822 -999 -999 -999 -999 -999
2010-04-06 17:12 51°18.386 2°51.24 -999 -999 -999 -999 -999
2010-04-06 17:14 51°18.016 2°51.624 -999 -999 -999 -999 -999
2010-04-06 17:16 51°17.645 2°52.009 -999 -999 -999 -999 -999
2010-04-06 17:18 51°17.277 2°52.395 -999 -999 -999 -999 -999
2010-04-06 17:20 51°16.899 2°52.745 -999 -999 -999 -999 -999
2010-04-06 17:22 51°16.512 2°53.074 -999 -999 -999 -999 -999
2010-04-06 17:24 51°16.125 2°53.375 -999 -999 -999 -999 -999
2010-04-06 17:26 51°15.734 2°53.668 -999 -999 -999 -999 -999
2010-04-06 17:28 51°15.389 2°54.112 -999 -999 -999 -999 -999
2010-04-06 17:30 51°15.06 2°54.502 -999 -999 -999 -999 -999
2010-04-06 17:32 51°14.737 2°54.861 -999 -999 -999 -999 -999
2010-04-06 17:34 51°14.347 2°55.192 -999 -999 -999 -999 -999
2010-04-06 17:36 51°14.085 2°55.44 -999 -999 -999 -999 -999
2010-04-06 17:38 51°13.867 2°55.596 -999 -999 -999 -999 -999
2010-04-06 17:40 51°13.72 2°55.734 -999 -999 -999 -999 -999
2010-04-06 17:42 51°13.668 2°55.93 -999 -999 -999 -999 -999